Location: Huberhof
(49.2050°N, 7.4980°E)
Time: 01:09:26
(UTC+00:00)

S3M - Pass Details

Date: 29 October 2020
Orbit: 950 x 1003 km, 83.0° (Epoch: 26 November)

Event Time Altitude Azimuth Distance (km) Brightness Sun altitude
Rises 17:14:08 0° 161° (SSE) 3,612 6.9 -10.5°
Reaches altitude 10° 17:16:45 10° 154° (SSE) 2,674 6.1 -10.9°
Maximum altitude 17:22:20 39° 88° (E) 1,408 4.4 -11.8°
Drops below altitude 10° 17:27:59 10° 22° (NNE) 2,714 6.1 -12.7°
Sets 17:30:40 0° 15° (NNE) 3,673 6.8 -13.1°
